Regional Weather Roundup
Issued by NWS

Home | Current Version | Previous Version | Graphics & Text | Print | Product List | Glossary On
Versions: 1 2 3 4 5 6 7 8 9 10 11 12 13 14 15 16 17 18 19 20 21 22 23 24 25 26 27 28 29 30 31 32 33 34 35 36 37 38 39 40 41 42 43 44 45 46 47 48 49 50
000
ASUS43 KLOT 280008
RWRIL

ILLINOIS REGIONAL WEATHER ROUNDUP
NATIONAL WEATHER SERVICE CHICAGO/ROMEOVILLE IL
700 PM CDT WED JUL 27 2016

NOTE: "FAIR" INDICATES FEW OR NO CLOUDS BELOW 12,000 FEET WITH NO
SIGNIFICANT WEATHER AND/OR OBSTRUCTIONS TO VISIBILITY.

* THESE STATIONS ARE NOT UNDER NWS QUALITY CONTROL. THEY ALSO MAY NOT
  REPORT WEATHER SUCH AS PRECIPITATION OR FOG.

ILZ001-002-007-009-015-016-024-280100-
NORTHWEST ILLINOIS

CITY           SKY/WX    TMP DP  RH WIND       PRES   REMARKS
MOLINE         MOSUNNY   85  69  58 SW5       29.90S HX  89
6HR MIN TEMP:  84; 6HR MAX TEMP:  88;

STERLING*      MOSUNNY   83  71  67 CALM      29.92S HX  87
SAVANNA*       MOSUNNY   81  70  69 SW3       29.91S HX  85
$$

ILZ003-004-008-010-011-017-018-280100-
NORTH CENTRAL ILLINOIS

CITY           SKY/WX    TMP DP  RH WIND       PRES   REMARKS
ROCKFORD       PTSUNNY   84  68  58 CALM      29.92F HX  87
6HR MIN TEMP:  84; 6HR MAX TEMP:  87;

FREEPORT*      MOSUNNY   80  70  71 CALM      29.94S HX  83
ROCHELLE*      MOSUNNY   80  74  80 CALM      29.92F HX  85
DE KALB*       MOSUNNY   80  71  74 S5        29.94S HX  84
$$

ILZ005-006-012>014-019>023-280100-
NORTHEAST ILLINOIS

CITY           SKY/WX    TMP DP  RH WIND       PRES   REMARKS
CHICAGO-OHARE  CLOUDY    83  62  49 E9        29.91F HX  84
6HR MIN TEMP:  83; 6HR MAX TEMP:  89;

CHICAGO-MIDWAY PTSUNNY   84  66  54 E14       29.91F HX  86
6HR MIN TEMP:  84; 6HR MAX TEMP:  90;

AURORA         MOSUNNY   84  69  60 S6        29.92F HX  88
6HR MIN TEMP:  84; 6HR MAX TEMP:  88;

LANSING*       SUNNY     83  65  55 S6        29.92F HX  85
JOLIET*        SUNNY     83  68  60 S5        29.91F HX  86
WAUKEGAN       CLOUDY    81  67  62 E9        29.92F HX  83
6HR MIN TEMP:  81; 6HR MAX TEMP:  88;

DUPAGE AIRPORT MOSUNNY   83  67  58 SW5       29.91F HX  85
6HR MIN TEMP:  83; 6HR MAX TEMP:  88;

KANKAKEE*      SUNNY     85  69  58 S3        29.93F HX  88
WHEELING       CLOUDY    83  62  49 SE6       29.92F HX  84
6HR MIN TEMP:  83; 6HR MAX TEMP:  90;

MORRIS*        SUNNY     80  71  72 CALM      29.91F HX  84
ROMEOVILLE*    SUNNY     82  64  55 W3        29.92F HX  84
NORTHERLY ISL    N/A     78  70  76 E7          N/A  HX  80
$$

LMZ740>746-280100-
SOUTHERN LAKE MICHIGAN

STATION/POSITION SKY/WX   TEMP    WIND        PRES    VSBY  WAVE
                          AIR SEA DIR/SP/G                  HT/PER
                          (F)     (DEG/KT/KT) (MB)    (MI)  (FT/S)
SOUTHERN BUOY              76 77   70/ 10/ 12 1012.9F         0
WILMETTE HARBOR            76 72  140/  6/  8   N/A           1/ 2
HARRISON CRIB              80      70/ 11/ 12   N/A
BURNHAM HARBOR             77      90/  6/  7   N/A
CALUMET HARBOR             78                   N/A
BURNS HARBOR               80      70/  9/ 11 1014.2S
MICHIGAN CITY              78      20/ 11/ 11   N/A
MICHIGAN CITY 6N           78 78   80/  8/ 10   N/A           1
ST. JOSEPH                 79 79   90/  4/  4 1013.0F         1
$$

ILZ025>027-034>036-040-047-049-050-058-095>099-280100-
WEST-CENTRAL ILLINOIS

CITY           SKY/WX    TMP DP  RH WIND       PRES   REMARKS
QUINCY         SUNNY     87  72  60 SW3       29.88F HX  93
GALESBURG*     SUNNY     84  70  62 CALM      29.91S HX  88
MACOMB*        SUNNY     83  75  76 E3        29.91F HX  90
JACKSONVILLE*  SUNNY     83  76  79 E6        29.89F HX  91
PITTSFIELD*    SUNNY     85  78  79 E3        29.90F HX  97
$$

ILZ028>032-037-038-041>044-048-051>054-059>061-280100-
CENTRAL ILLINOIS

CITY           SKY/WX    TMP DP  RH WIND       PRES   REMARKS
PONTIAC        SUNNY     83  74  74 CALM      29.93F HX  90
BLOOMINGTON    MOSUNNY   81  71  71 SE8       29.93F HX  85
DECATUR        CLOUDY    83  74  74 E5        29.92F HX  89
PEORIA         MOSUNNY   84  71  65 SE7       29.90F HX  89
6HR MIN TEMP:  83; 6HR MAX TEMP:  88;

LACON*         MOSUNNY   83  70  66 E3        29.89F HX  87
LINCOLN*       SUNNY     84  75  73 CALM      29.91S HX  92
SPRINGFIELD    SUNNY     84  73  69 SE6       29.90F HX  90
6HR MIN TEMP:  79; 6HR MAX TEMP:  87; 6HR PCP:  0.04;

TAYLORVILLE    MOSUNNY   82  74  78 MISG      29.92S HX  88
6HR MIN TEMP:  75; 6HR MAX TEMP:  84; 6HR PCP:  1.15;

$$

ILZ033-039-045-046-055>057-062-063-280100-
EAST-CENTRAL ILLINOIS

CITY           SKY/WX    TMP DP  RH WIND       PRES   REMARKS
CHAMPAIGN      MOSUNNY   82  71  69 E5        29.94S HX  86
MATTOON        MOSUNNY   81  72  74 SE3       29.92S HX  85
PARIS*         CLOUDY    82  73  74 CALM      29.93R HX  87
$$

ILZ079-100>102-280100-
SOUTHWEST ILLINOIS

CITY           SKY/WX    TMP DP  RH WIND       PRES   REMARKS
ALTON          PTSUNNY   82  75  78 SE7       29.91R HX  89
BELLEVILLE     PTSUNNY   83  78  82 CALM      29.89S HX  93
CAHOKIA*       CLOUDY    84  76  76 SE6       29.90R HX  93
SPARTA*        CLOUDY    83  77  83 CALM      29.92S HX  92
$$

ILZ064>066-069>071-074>076-080>082-084>086-088>090-092>094-280100-
SOUTH-CENTRAL ILLINOIS

CITY           SKY/WX    TMP DP  RH WIND       PRES   REMARKS
CARBONDALE     CLOUDY    78  70  76 SE14      29.92R THUNDER HX  80
6HR MIN TEMP:  78; 6HR MAX TEMP:  91;

CAIRO*         CLOUDY    75  73  92 SW9       29.90F
EFFINGHAM*     MOSUNNY   83  76  80 CALM      29.93S HX  92
MARION         TSTM      75  72  88 W6        29.94R
MT. VERNON     MOSUNNY   84  72  65 MISG      29.91R HX  89
CENTRALIA*     CLOUDY    86  79  79 CALM      29.90S HX  99
SALEM*         CLOUDY    87  76  69 CALM      29.91R HX  97
METROPOLIS*    CLOUDY    76  72  87 N5        29.91R
$$

ILZ067-068-072-073-078-083-087-091-280100-
SOUTHEAST ILLINOIS

CITY           SKY/WX    TMP DP  RH WIND       PRES   REMARKS
LAWRENCEVILLE  CLOUDY    82  75  79 S6        29.92R HX  89
FLORA*         CLOUDY    85  78  79 E3        29.92R HX  97
FAIRFIELD*     CLOUDY    80  75  85 CALM      29.91R HX  85
HARRISBURG*    CLOUDY    80  76  86 CALM      29.93S HX  85
ROBINSON*      PTSUNNY   82  74  77 E5        29.92R HX  88
CARMI*         CLOUDY    82  78  86 SE3       29.92S HX  92
$$

ABBREVIATIONS USED IN REMARKS
   TC - TEMPERATURE IN CELSIUS
  WCI - WIND CHILL INDEX
   HX - HEAT INDEX
  VSB - VISIBILITY
$$





USA.gov is the U.S. government's official web portal to all federal, state and local government web resources and services.